TimeCDT,TemperatureF,Dew PointF,Humidity,Sea Level PressureIn,VisibilityMPH,Wind Direction,Wind SpeedMPH,Gust SpeedMPH,PrecipitationIn,Events,Conditions,WindDirDegrees,DateUTC
12:54 AM,24.8,12.2,59,30.09,10.0,NW,4.6,-,N/A,,Clear,310,2013-03-21 05:54:00
1:54 AM,25.0,12.0,58,30.10,10.0,WNW,3.5,-,N/A,,Clear,300,2013-03-21 06:54:00
2:54 AM,24.1,12.9,62,30.10,10.0,Calm,Calm,-,N/A,,Clear,0,2013-03-21 07:54:00
3:54 AM,24.1,12.9,62,30.08,10.0,NNW,3.5,-,N/A,,Clear,340,2013-03-21 08:54:00
4:54 AM,21.9,10.9,63,30.08,10.0,NW,4.6,-,N/A,,Clear,320,2013-03-21 09:54:00
5:54 AM,21.9,10.9,63,30.09,10.0,NW,5.8,-,N/A,,Clear,320,2013-03-21 10:54:00
6:54 AM,21.9,10.0,60,30.09,10.0,NW,4.6,-,N/A,,Clear,310,2013-03-21 11:54:00
7:54 AM,24.1,10.0,55,30.12,10.0,NW,8.1,-,N/A,,Clear,310,2013-03-21 12:54:00
8:54 AM,24.1,9.0,53,30.13,10.0,NW,12.7,-,N/A,,Mostly Cloudy,320,2013-03-21 13:54:00
9:20 AM,24.8,10.4,54,30.12,10.0,NNW,10.4,-,N/A,,Mostly Cloudy,330,2013-03-21 14:20:00
9:54 AM,26.1,12.9,58,30.14,10.0,NNW,8.1,-,N/A,,Mostly Cloudy,330,2013-03-21 14:54:00
10:47 AM,26.6,12.2,55,30.13,10.0,NW,6.9,-,N/A,,Mostly Cloudy,310,2013-03-21 15:47:00
10:54 AM,26.1,12.9,58,30.15,10.0,WNW,9.2,-,N/A,,Overcast,290,2013-03-21 15:54:00
11:54 AM,28.9,10.9,47,30.13,10.0,Variable,3.5,-,N/A,,Mostly Cloudy,0,2013-03-21 16:54:00
12:54 PM,30.9,12.9,47,30.13,10.0,North,3.5,-,0.00,,Scattered Clouds,360,2013-03-21 17:54:00
1:54 PM,33.1,15.1,48,30.11,10.0,Variable,5.8,-,N/A,,Scattered Clouds,0,2013-03-21 18:54:00
2:54 PM,33.1,12.9,43,30.09,10.0,Variable,3.5,-,N/A,,Clear,0,2013-03-21 19:54:00
3:54 PM,34.0,14.0,44,30.07,10.0,NNE,4.6,-,N/A,,Clear,30,2013-03-21 20:54:00
4:54 PM,35.1,14.0,42,30.05,10.0,NE,6.9,-,N/A,,Clear,50,2013-03-21 21:54:00
5:54 PM,35.1,14.0,42,30.04,10.0,NE,4.6,-,N/A,,Clear,50,2013-03-21 22:54:00
6:54 PM,30.9,15.1,52,30.06,10.0,North,4.6,-,N/A,,Clear,360,2013-03-21 23:54:00
7:54 PM,30.0,15.1,54,30.08,10.0,Calm,Calm,-,N/A,,Clear,0,2013-03-22 00:54:00
8:54 PM,27.0,15.1,61,30.09,10.0,North,3.5,-,N/A,,Clear,360,2013-03-22 01:54:00
9:54 PM,27.0,18.0,69,30.08,10.0,NE,3.5,-,N/A,,Clear,40,2013-03-22 02:54:00
10:54 PM,28.0,18.0,66,30.08,10.0,Calm,Calm,-,N/A,,Clear,0,2013-03-22 03:54:00
11:54 PM,27.0,18.0,69,30.07,10.0,Calm,Calm,-,N/A,,Clear,0,2013-03-22 04:54:00